Location: Rostock
(54.0884°N, 12.1234°E)
Time: 07:26:14
(UTC+02:00)

ISS - Visible Passes

Search period start: 29 March 2017 00:00
Search period end: 08 April 2017 00:00
Orbit: 399 x 409 km, 51.6° (Epoch: 29 March)

Date Brightness Start Highest point End Pass type
(mag) Time Alt. Az. Time Alt. Az. Time Alt. Az.
29 Mar -2.3 21:43:15 10° SW 21:45:05 24° SSW 21:45:05 24° SSW visible
30 Mar -2.5 20:51:19 10° SSW 20:53:58 23° SSE 20:55:20 18° ESE visible
30 Mar -1.7 22:26:50 10° WSW 22:28:00 20° WSW 22:28:00 20° WSW visible
31 Mar -3.5 21:34:36 10° WSW 21:37:43 43° SSE 21:38:03 41° SE visible
01 Apr -3.0 20:42:25 10° SW 20:45:24 34° SSE 20:47:58 13° E visible
01 Apr -2.8 22:18:23 10° WSW 22:20:37 37° WSW 22:20:37 37° WSW visible
02 Apr -3.6 21:26:02 10° WSW 21:29:14 53° S 21:30:24 33° ESE visible
02 Apr -1.2 23:02:20 10° W 23:03:04 15° W 23:03:04 15° W visible
03 Apr -3.4 20:33:44 10° WSW 20:36:53 46° SSE 20:40:03 10° E visible
03 Apr -3.4 22:09:56 10° W 22:12:46 49° SW 22:12:46 49° SW visible
04 Apr -3.6 21:17:32 10° W 21:20:44 56° S 21:22:25 25° ESE visible
04 Apr -1.5 22:53:56 10° W 22:55:04 18° WSW 22:55:04 18° WSW visible
05 Apr -3.3 22:01:27 10° W 22:04:35 42° SSW 22:04:41 42° S visible
06 Apr -3.4 21:09:00 10° W 21:12:11 50° S 21:14:15 19° ESE visible
06 Apr -1.5 22:45:36 10° W 22:46:54 17° WSW 22:46:54 17° WSW visible
07 Apr -2.7 21:52:59 10° W 21:55:55 30° SSW 21:56:28 28° S visible
